User: anonymous   Login
Location: Emory University Observatory
(33.7903°N, 84.3267°W)
Time: 09:26:43
(UTC-04:00)
Language:

AIST 2D - Orbit

View from above orbital plane
View from above orbital plane
View from above satellite
View from above satellite

Ground track
Ground track

The orbit data is extracted from the following two-line orbital elements,

1 41465U 16026B   18116.23182819  .00001992  00000-0  65676-4 0  9991
2 41465  97.2269  17.0554 0011493 172.8432 344.1927 15.32553954111380
Epoch (UTC): 26 April 2018 05:33:49
Eccentricity: 0.0011493
inclination: 97.2269°
perigee height: 460 km
apogee height: 476 km
right ascension of ascending node: 17.0554°
argument of perigee: 172.8432°
revolutions per day: 15.32553954
mean anomaly at epoch: 344.1927°
orbit number at epoch: 11138

The dashed part of the orbit path shows where the satellite is in the earth's shadow,  

DLR